Location: Berg
(48.4333°N, 13.9167°E)
Time: 05:34:40
(UTC+00:00)

Nadezhda 4 Rocket - Pass Details

Date: 18 September 2020
Orbit: 949 x 993 km, 82.9° (Epoch: 22 October)

Event Time Altitude Azimuth Distance (km) Brightness Sun altitude
Rises 18:50:23 0° 351° (N) 3,640 7.5 -17.0°
Reaches altitude 10° 18:52:53 10° 352° (N) 2,688 6.7 -17.4°
Maximum altitude 18:59:03 85° 82° (E) 960 3.9 -18.3°
Enters shadow 19:04:42 12° 170° (S) 2,499 5.8 -19.2°
